Location: Unspecified
(51.5147°N, 7.4673°E)
Time: 18:32:19
(UTC+01:00)

Vanguard 1 Rocket - Pass Details

Date: 22 February 2026
Orbit: 653 x 4214 km, 34.3° (Epoch: 12 March)

Event Time Altitude Azimuth Distance (km) Brightness Sun altitude
Rises 15:18:35 0° 249° (WSW) 4,557 12.1 20.0°
Reaches altitude 10° 15:21:21 10° 241° (WSW) 3,933 12.3 19.7°
Maximum altitude 15:31:12 37° 178° (S) 3,401 11.1 18.6°
Drops below altitude 10° 15:48:13 10° 121° (ESE) 6,710 11.7 16.7°
Sets 15:54:53 0° 115° (ESE) 8,122 12.0 16.0°
